When you browse on this site, cookies collect data to enhance your experience and personalize the content and advertising you see.
Visit our Privacy Policy to learn more. By continuing to use the site, you agree to this use of cookies and data.
  • In Spain
  • List of Countries
  • For 7 days
  • Water Temperature
  • Weather Map
  • Weather Widgets
  • user-avatar
    Login

    Hourly Weather Tibissa

    Today, 7 December, Saturday

    Time Temperature Precipitation Wind Pressure Humidity
    00:00 +8°C° 0 mm 0 mps 688 mmHg 52%
    01:00 +8°C° 0 mm 0 mps 688 mmHg 51%
    02:00 +7°C° 0 mm 0 mps 687 mmHg 50%
    03:00 +7°C° 0 mm 0 mps 687 mmHg 49%
    04:00 +7°C° 0 mm 0 mps 687 mmHg 47%
    05:00 +7°C° 0 mm 0 mps 687 mmHg 46%
    06:00 +8°C° 0 mm 1 mps 687 mmHg 45%
    07:00 +8°C° 0 mm 1 mps 687 mmHg 44%
    08:00 +10°C° 0 mm 1 mps 688 mmHg 39%
    09:00 +13°C° 0 mm 1 mps 688 mmHg 34%
    10:00 +15°C° 0 mm 1 mps 689 mmHg 30%
    11:00 +16°C° 0 mm 1 mps 689 mmHg 29%
    12:00 +18°C° 0 mm 1 mps 689 mmHg 29%
    13:00 +18°C° 0 mm 2 mps 689 mmHg 29%
    14:00 +18°C° 0 mm 2 mps 688 mmHg 32%
    15:00 +18°C° 0 mm 2 mps 688 mmHg 35%
    16:00 +17°C° 0 mm 2 mps 688 mmHg 38%
    17:00 +16°C° 0 mm 2 mps 688 mmHg 44%
    18:00 +15°C° 0 mm 1 mps 687 mmHg 51%
    19:00 +13°C° 0 mm 1 mps 687 mmHg 57%
    20:00 +13°C° 0 mm 1 mps 687 mmHg 57%
    21:00 +13°C° 0 mm 2 mps 688 mmHg 58%
    22:00 +13°C° 0 mm 2 mps 688 mmHg 58%
    23:00 +13°C° 0 mm 2 mps 688 mmHg 58%

    Tomorrow, 8 December, Sunday

    Time Temperature Precipitation Wind Pressure Humidity
    00:00 +13°C° 0 mm 2 mps 688 mmHg 59%
    01:00 +14°C° 0 mm 2 mps 688 mmHg 59%
    02:00 +13°C° 0.1 mm 2 mps 688 mmHg 60%
    03:00 +13°C° 0.1 mm 1 mps 687 mmHg 62%
    04:00 +12°C° 0.1 mm 1 mps 687 mmHg 63%
    05:00 +12°C° 0.2 mm 1 mps 687 mmHg 65%
    06:00 +12°C° 0.2 mm 1 mps 687 mmHg 67%
    07:00 +11°C° 0.2 mm 1 mps 687 mmHg 69%
    08:00 +12°C° 0.2 mm 2 mps 688 mmHg 68%
    09:00 +11°C° 0.2 mm 3 mps 688 mmHg 66%
    10:00 +12°C° 0.2 mm 4 mps 688 mmHg 65%
    11:00 +12°C° 0.4 mm 4 mps 688 mmHg 66%
    12:00 +12°C° 0.4 mm 4 mps 688 mmHg 67%
    13:00 +12°C° 0.4 mm 3 mps 688 mmHg 68%
    14:00 +12°C° 0.1 mm 3 mps 687 mmHg 68%
    15:00 +12°C° 0.1 mm 3 mps 687 mmHg 67%
    16:00 +12°C° 0.1 mm 3 mps 687 mmHg 67%
    17:00 +12°C° 0.4 mm 2 mps 687 mmHg 71%
    18:00 +10°C° 0.4 mm 2 mps 687 mmHg 76%
    19:00 +10°C° 0.4 mm 2 mps 687 mmHg 80%
    20:00 +10°C° 0.3 mm 1 mps 688 mmHg 81%
    21:00 +10°C° 0.3 mm 1 mps 688 mmHg 83%
    22:00 +10°C° 0.3 mm 1 mps 688 mmHg 84%
    23:00 +8°C° 0 mm 2 mps 688 mmHg 86%

    Day after tomorrow, 9 December, Monday

    Time Temperature Precipitation Wind Pressure Humidity
    00:00 +8°C° 0 mm 2 mps 687 mmHg 87%
    01:00 +8°C° 0 mm 2 mps 687 mmHg 88%
    02:00 +7°C° 0 mm 2 mps 687 mmHg 90%
    03:00 +7°C° 0 mm 2 mps 686 mmHg 92%
    04:00 +7°C° 0 mm 2 mps 686 mmHg 94%
    05:00 +6°C° 0 mm 2 mps 686 mmHg 94%
    06:00 +5°C° 0 mm 3 mps 686 mmHg 93%
    07:00 +5°C° 0 mm 3 mps 686 mmHg 92%
    08:00 +6°C° 0 mm 4 mps 687 mmHg 84%
    09:00 +7°C° 0 mm 5 mps 687 mmHg 76%
    10:00 +8°C° 0 mm 6 mps 688 mmHg 68%
    11:00 +9°C° 0 mm 6 mps 688 mmHg 64%
    12:00 +10°C° 0 mm 7 mps 687 mmHg 60%
    13:00 +11°C° 0 mm 8 mps 687 mmHg 55%
    14:00 +11°C° 0 mm 7 mps 687 mmHg 56%
    15:00 +11°C° 0 mm 7 mps 687 mmHg 56%
    16:00 +11°C° 0 mm 7 mps 686 mmHg 56%
    17:00 +10°C° 0 mm 7 mps 686 mmHg 61%
    18:00 +9°C° 0 mm 7 mps 686 mmHg 66%
    19:00 +8°C° 0 mm 7 mps 686 mmHg 71%
    20:00 +7°C° 0 mm 8 mps 687 mmHg 73%
    21:00 +7°C° 0 mm 9 mps 687 mmHg 75%
    22:00 +6°C° 0 mm 11 mps 687 mmHg 77%
    23:00 +6°C° 0 mm 11 mps 687 mmHg 79%

    10 December, Tuesday

    Time Temperature Precipitation Wind Pressure Humidity
    00:00 +5°C° 0 mm 10 mps 687 mmHg 81%
    01:00 +3°C° 0 mm 10 mps 686 mmHg 83%
    02:00 +4°C° 0 mm 11 mps 686 mmHg 82%
    03:00 +4°C° 0 mm 11 mps 686 mmHg 82%
    04:00 +4°C° 0 mm 11 mps 686 mmHg 82%
    05:00 +3°C° 0 mm 11 mps 686 mmHg 83%
    06:00 +3°C° 0 mm 11 mps 686 mmHg 85%
    07:00 +3°C° 0 mm 11 mps 686 mmHg 87%
    08:00 +3°C° 0 mm 12 mps 686 mmHg 82%
    09:00 +4°C° 0 mm 13 mps 686 mmHg 76%
    10:00 +5°C° 0 mm 14 mps 686 mmHg 71%
    11:00 +5°C° 0 mm 14 mps 686 mmHg 69%
    12:00 +5°C° 0 mm 14 mps 685 mmHg 67%
    13:00 +6°C° 0 mm 14 mps 685 mmHg 65%
    14:00 +5°C° 0.1 mm 14 mps 685 mmHg 68%
    15:00 +5°C° 0.1 mm 14 mps 684 mmHg 72%
    16:00 +4°C° 0.1 mm 13 mps 684 mmHg 76%
    17:00 +4°C° 0.2 mm 13 mps 684 mmHg 75%
    18:00 +3°C° 0.2 mm 14 mps 684 mmHg 75%
    19:00 +1°C° 0.2 mm 14 mps 684 mmHg 74%
    20:00 +1°C° 0 mm 13 mps 685 mmHg 75%
    21:00 0°C° 0 mm 12 mps 685 mmHg 76%
    22:00 0°C° 0 mm 12 mps 685 mmHg 77%
    23:00 +1°C° 0 mm 11 mps 685 mmHg 79%

    11 December, Wednesday

    Time Temperature Precipitation Wind Pressure Humidity
    00:00 +1°C° 0 mm 11 mps 685 mmHg 81%
    01:00 -1°C° 0 mm 11 mps 685 mmHg 84%
    02:00 0°C° 0 mm 10 mps 685 mmHg 85%
    03:00 0°C° 0 mm 10 mps 685 mmHg 87%
    04:00 0°C° 0 mm 9 mps 685 mmHg 89%
    05:00 0°C° 0 mm 9 mps 685 mmHg 88%
    06:00 +1°C° 0 mm 8 mps 686 mmHg 86%
    07:00 +1°C° 0 mm 8 mps 686 mmHg 84%
    08:00 +2°C° 0 mm 8 mps 686 mmHg 81%
    09:00 +2°C° 0 mm 9 mps 687 mmHg 78%
    10:00 +3°C° 0 mm 9 mps 687 mmHg 75%
    11:00 +5°C° 0 mm 8 mps 687 mmHg 70%
    12:00 +6°C° 0 mm 8 mps 687 mmHg 66%
    13:00 +8°C° 0 mm 7 mps 686 mmHg 61%
    14:00 +8°C° 0 mm 6 mps 686 mmHg 57%
    15:00 +8°C° 0 mm 6 mps 686 mmHg 54%
    16:00 +9°C° 0 mm 5 mps 686 mmHg 50%
    17:00 +7°C° 0 mm 4 mps 686 mmHg 54%
    18:00 +7°C° 0 mm 3 mps 685 mmHg 58%
    19:00 +6°C° 0 mm 2 mps 685 mmHg 62%
    20:00 +6°C° 0 mm 2 mps 685 mmHg 60%
    21:00 +6°C° 0 mm 2 mps 685 mmHg 57%
    22:00 +6°C° 0 mm 2 mps 685 mmHg 55%
    23:00 +5°C° 0 mm 2 mps 685 mmHg 52%

    12 December, Thursday

    Time Temperature Precipitation Wind Pressure Humidity
    00:00 +5°C° 0 mm 2 mps 685 mmHg 49%
    01:00 +5°C° 0 mm 2 mps 685 mmHg 47%
    02:00 +5°C° 0 mm 2 mps 685 mmHg 47%
    03:00 +5°C° 0 mm 2 mps 684 mmHg 46%
    04:00 +5°C° 0 mm 2 mps 684 mmHg 46%
    05:00 +5°C° 0 mm 2 mps 684 mmHg 46%
    06:00 +5°C° 0 mm 2 mps 684 mmHg 46%
    07:00 +4°C° 0 mm 3 mps 684 mmHg 46%
    08:00 +5°C° 0 mm 4 mps 685 mmHg 53%
    09:00 +5°C° 0 mm 6 mps 686 mmHg 60%
    10:00 +5°C° 0 mm 7 mps 686 mmHg 68%
    11:00 +6°C° 0 mm 8 mps 686 mmHg 66%
    12:00 +6°C° 0 mm 9 mps 686 mmHg 64%
    13:00 +7°C° 0 mm 10 mps 686 mmHg 61%
    14:00 +7°C° 0 mm 9 mps 686 mmHg 62%
    15:00 +6°C° 0 mm 8 mps 686 mmHg 62%
    16:00 +7°C° 0 mm 6 mps 686 mmHg 62%
    17:00 +6°C° 0 mm 5 mps 686 mmHg 66%
    18:00 +6°C° 0 mm 4 mps 686 mmHg 70%
    19:00 +5°C° 0 mm 3 mps 686 mmHg 74%
    20:00 +4°C° 0 mm 3 mps 686 mmHg 75%
    21:00 +4°C° 0 mm 3 mps 686 mmHg 77%
    22:00 +5°C° 0 mm 2 mps 686 mmHg 79%
    23:00 +5°C° 0 mm 2 mps 685 mmHg 78%
    Show more